QPF
0.00 0.00 0.00 0.00 0.00 0.00 0.00 0.00 0.00 0.00 0.00 0.00 0.00 0.00 0.00 0.00 0.00 0.00 0.00 0.00 0.00 0.00 0.00 0.00 0.00 0.00 0.00 0.00 0.00 0.00 0.00 0.00 0.00 0.00 0.00 0.00 0.00 0.00 0.00 0.00 0.00 0.00 0.00 0.00 0.00 0.00 0.00 0.00 0.00
0.00 0.00 0.00 0.00 0.00 0.00 0.00 0.00 0.00 0.00 0.00 0.00 0.00 0.00 0.00 0.00 0.00 0.00 0.00 0.00 0.00 0.00 0.00 0.00 0.00 0.00 0.00 0.00 0.00 0.00 0.00 0.00 0.00 0.00 0.00 0.00 0.00 0.00 0.00 0.00 0.00 0.00 0.00 0.00 0.00 0.00 0.00 0.00 0.00
0.00 0.00 0.00 0.00 0.00 0.00 0.00 0.00 0.00 0.00 0.00 0.00 0.00 0.00 0.00 0.00 0.00 0.00 0.00 0.00 0.00 0.00 0.00 0.00 0.00 0.00 0.00 0.00 0.00 0.00 0.00 0.00 0.00 0.00 0.00 0.00 0.00 0.00 0.00 0.00 0.00 0.00 0.00 0.00 0.00 0.00 0.00 0.00 0.00
0.00 0.00 0.00 0.00 0.00 0.00 0.00 0.00 0.00 0.00 0.00 0.00 0.00 0.00 0.00 0.00 0.00 0.00 0.00 0.00 0.00 0.00 0.00 0.00 0.00 0.00 0.00 0.00 0.00 0.00 0.00 0.00 0.00 0.00 0.00 0.00 0.00 0.00 0.00 0.00 0.00 0.00 0.00 0.00 0.00 0.00 0.00 0.00 0.00
0.00 0.00 0.00 0.00 0.00 0.00 0.00 0.00 0.00 0.00 0.00 0.00 0.00 0.00 0.00 0.00 0.00 0.00 0.00 0.00 0.00 0.00 0.00 0.00 0.00 0.00 0.00 0.00 0.00 0.00 0.00 0.00 0.00 0.00 0.00 0.00 0.00 0.00 0.00 0.00 0.00 0.00 0.00 0.00 0.00 0.00 0.00 0.00 0.00
0.00 0.00 0.00 0.00 0.00 0.00 0.00 0.00 0.00 0.00 0.00 0.00 0.00 0.00 0.00 0.00 0.00 0.00 0.00 0.00 0.00 0.00 0.00 0.00 0.00 0.00 0.00 0.00 0.00 0.00 0.00 0.00 0.00 0.00 0.00 0.00 0.00 0.00 0.00 0.00 0.00 0.00 0.00 0.00 0.00 0.00 0.00 0.00 0.00
0.00 0.00 0.00 0.00 0.00 0.00 0.00 0.00 0.00 0.00 0.00 0.00 0.00 0.00 0.00 0.00 0.00 0.00 0.00 0.00 0.00 0.00 0.00 0.00 0.00 0.00 0.00 0.00 0.00 0.00 0.00 0.00 0.00 0.00 0.00 0.00 0.00 0.00 0.00 0.00 0.00 0.00 0.00 0.00 0.00 0.00 0.00 0.00 0.00
0.00 0.00 0.00 0.00 0.00 0.00 0.00 0.00 0.00 0.00 0.00 0.00 0.00 0.00 0.00 0.00 0.00 0.00 0.00 0.00 0.00 0.00 0.00 0.00 0.00 0.00 0.00 0.00 0.00 0.00 0.00 0.00 0.00 0.00 0.00 0.00 0.00 0.00 0.00 0.00 0.00 0.00 0.00 0.00 0.00 0.00 0.00 0.00 0.00
0.00 0.00 0.00 0.00 0.00 0.00 0.00 0.00 0.00 0.00 0.00 0.00 0.00 0.00 0.00 0.00 0.00 0.00 0.00 0.00 0.00 0.00 0.00 0.00 0.00 0.00 0.00 0.00 0.00 0.00 0.00 0.00 0.00 0.00 0.00 0.00 0.00 0.00 0.00 0.00 0.00 0.00 0.00 0.00 0.00 0.00 0.00 0.00 0.00
0.00 0.00 0.00 0.00 0.00 0.00 0.00 0.00 0.00 0.00 0.00 0.00 0.00 0.00 0.00 0.00 0.00 0.00 0.00 0.00 0.00 0.00 0.00 0.00 0.00 0.00 0.00 0.00 0.00 0.00 0.00 0.00 0.00 0.00 0.00 0.00 0.00 0.00 0.00 0.00 0.00 0.00 0.00 0.00 0.00 0.00 0.00 0.00 0.00
0.00 0.00 0.00 0.00 0.00 0.00 0.00 0.00 0.00 0.00 0.00 0.00 0.00 0.00 0.00 0.00 0.00 0.00 0.00 0.00 0.00 0.00 0.00 0.00 0.00 0.00 0.00 0.00 0.00 0.00 0.00 0.00 0.00 0.00 0.00 0.00 0.00 0.00 0.00 0.00 0.00 0.00 0.00 0.00 0.00 0.00 0.00 0.00 0.00
0.00 0.00 0.00 0.00 0.00 0.00 0.00 0.00 0.00 0.00 0.00 0.00 0.00 0.00 0.00 0.00 0.00 0.00 0.00 0.00 0.00 0.00 0.00 0.00 0.00 0.00 0.00 0.00 0.00 0.00 0.00 0.00 0.00 0.00 0.00 0.00 0.00 0.00 0.00 0.00 0.00 0.00 0.00 0.00 0.00 0.00 0.00 0.00 0.00
0.00 0.00 0.00 0.00 0.00 0.00 0.00 0.00 0.00 0.00 0.00 0.00 0.00 0.00 0.00 0.00 0.00 0.00 0.00 0.00 0.00 0.00 0.00 0.00 0.00 0.00 0.00 0.00 0.00 0.00 0.00 0.00 0.00 0.00 0.00 0.00 0.00 0.00 0.00 0.00 0.00 0.00 0.00 0.00 0.00 0.00 0.00 0.00 0.00
0.00 0.00 0.00 0.00 0.00 0.00 0.00 0.00 0.00 0.00 0.00 0.00 0.00 0.00 0.00 0.00 0.00 0.00 0.00 0.00 0.00 0.00 0.00 0.00 0.00 0.00 0.00 0.00 0.00 0.00 0.00 0.00 0.00 0.00 0.00 0.00 0.00 0.00 0.00 0.00 0.00 0.00 0.00 0.00 0.00 0.00 0.00 0.00 0.00
0.00 0.00 0.00 0.00 0.00 0.00 0.00 0.00 0.00 0.00 0.00 0.00 0.00 0.00 0.00 0.00 0.00 0.00 0.00 0.00 0.00 0.00 0.00 0.00 0.00 0.00 0.00 0.00 0.00 0.00 0.00 0.00 0.00 0.00 0.00 0.00 0.00 0.00 0.00 0.01 0.00 0.00 0.00 0.00 0.00 0.00 0.00 0.00 0.00
0.00 0.00 0.00 0.00 0.00 0.00 0.00 0.00 0.00 0.00 0.00 0.00 0.00 0.00 0.00 0.00 0.00 0.00 0.00 0.00 0.00 0.00 0.00 0.00 0.00 0.00 0.00 0.00 0.00 0.00 0.00 0.00 0.00 0.00 0.00 0.00 0.00 0.00 0.00 0.00 0.00 0.00 0.00 0.00 0.00 0.00 0.00 0.00 0.00
0.00 0.00 0.00 0.00 0.00 0.00 0.00 0.00 0.00 0.00 0.00 0.00 0.00 0.00 0.00 0.00 0.00 0.00 0.00 0.00 0.00 0.00 0.00 0.00 0.00 0.00 0.00 0.00 0.00 0.00 0.00 0.00 0.00 0.00 0.00 0.00 0.00 0.00 0.00 0.00 0.00 0.00 0.00 0.00 0.00 0.00 0.00 0.00 0.00
0.00 0.00 0.00 0.00 0.00 0.00 0.00 0.00 0.00 0.00 0.00 0.00 0.00 0.00 0.00 0.00 0.00 0.00 0.00 0.00 0.00 0.00 0.00 0.00 0.00 0.00 0.00 0.00 0.00 0.00 0.00 0.00 0.01 0.00 0.00 0.00 0.00 0.00 0.00 0.00 0.00 0.00 0.00 0.00 0.01 0.01 0.01 0.01 0.00
0.00 0.00 0.00 0.00 0.00 0.00 0.00 0.00 0.00 0.00 0.00 0.00 0.00 0.00 0.00 0.00 0.00 0.00 0.00 0.00 0.00 0.00 0.00 0.00 0.00 0.00 0.00 0.00 0.00 0.00 0.00 0.00 0.00 0.00 0.00 0.00 0.00 0.00 0.00 0.00 0.00 0.00 0.00 0.00 0.00 0.01 0.01 0.00 0.01
0.00 0.00 0.00 0.00 0.00 0.00 0.00 0.00 0.00 0.00 0.00 0.00 0.00 0.00 0.00 0.00 0.00 0.00 0.00 0.00 0.00 0.00 0.00 0.00 0.00 0.00 0.00 0.00 0.00 0.00 0.00 0.00 0.00 0.00 0.00 0.00 0.00 0.00 0.00 0.00 0.00 0.00 0.00 0.00 0.00 0.00 0.00 0.01 0.02
0.00 0.00 0.00 0.00 0.00 0.00 0.00 0.00 0.00 0.00 0.00 0.00 0.00 0.00 0.00 0.00 0.00 0.00 0.00 0.00 0.00 0.00 0.00 0.00 0.00 0.00 0.00 0.00 0.00 0.00 0.00 0.01 0.00 0.00 0.00 0.00 0.00 0.00 0.00 0.00 0.00 0.00 0.00 0.00 0.00 0.00 0.00 0.00 0.00
0.00 0.00 0.00 0.00 0.00 0.00 0.00 0.00 0.00 0.00 0.00 0.00 0.00 0.00 0.00 0.00 0.00 0.00 0.00 0.00 0.00 0.00 0.00 0.00 0.00 0.00 0.00 0.00 0.01 0.02 0.01 0.01 0.00 0.00 0.00 0.00 0.00 0.00 0.00 0.00 0.00 0.00 0.00 0.00 0.00 0.00 0.00 0.00 0.00
0.00 0.00 0.00 0.00 0.00 0.00 0.00 0.00 0.00 0.00 0.00 0.00 0.00 0.00 0.00 0.00 0.00 0.00 0.00 0.00 0.00 0.00 0.00 0.00 0.00 0.00 0.00 0.01 0.02 0.02 0.01 0.00 0.00 0.00 0.00 0.00 0.00 0.00 0.00 0.00 0.00 0.00 0.00 0.00 0.00 0.00 0.00 0.00 0.00
0.00 0.00 0.00 0.00 0.00 0.00 0.00 0.00 0.00 0.00 0.00 0.00 0.00 0.00 0.00 0.00 0.00 0.00 0.00 0.00 0.00 0.00 0.00 0.00 0.00 0.00 0.00 0.01 0.01 0.01 0.00 0.00 0.00 0.00 0.00 0.00 0.00 0.00 0.00 0.00 0.00 0.00 0.00 0.00 0.00 0.00 0.00 0.00 0.00
0.00 0.00 0.00 0.00 0.00 0.00 0.00 0.00 0.00 0.00 0.00 0.00 0.00 0.00 0.00 0.00 0.00 0.00 0.00 0.00 0.00 0.00 0.00 0.00 0.00 0.00 0.00 0.01 0.00 0.00 0.00 0.00 0.00 0.00 0.00 0.00 0.00 0.00 0.00 0.00 0.00 0.00 0.00 0.00 0.00 0.00 0.00 0.00 0.00
0.00 0.00 0.00 0.00 0.00 0.00 0.00 0.00 0.00 0.00 0.00 0.00 0.00 0.00 0.00 0.00 0.00 0.00 0.00 0.00 0.00 0.00 0.00 0.00 0.00 0.00 0.00 0.00 0.00 0.00 0.00 0.00 0.00 0.00 0.00 0.00 0.00 0.00 0.00 0.00 0.00 0.00 0.00 0.00 0.00 0.00 0.00 0.00 0.00
0.00 0.00 0.00 0.00 0.00 0.00 0.00 0.00 0.00 0.00 0.00 0.00 0.00 0.00 0.00 0.00 0.00 0.00 0.00 0.00 0.00 0.00 0.00 0.00 0.00 0.00 0.00 0.00 0.00 0.00 0.00 0.00 0.00 0.00 0.00 0.00 0.00 0.00 0.00 0.00 0.00 0.00 0.00 0.00 0.00 0.00 0.00 0.00 0.00
0.00 0.00 0.00 0.00 0.00 0.00 0.00 0.00 0.00 0.00 0.00 0.00 0.00 0.00 0.00 0.00 0.00 0.00 0.00 0.00 0.00 0.00 0.00 0.00 0.00 0.00 0.00 0.00 0.00 0.00 0.00 0.00 0.00 0.00 0.00 0.00 0.00 0.00 0.00 0.00 0.00 0.00 0.00 0.00 0.00 0.00 0.00 0.00 0.00
0.00 0.00 0.00 0.00 0.00 0.00 0.00 0.00 0.00 0.00 0.00 0.00 0.00 0.00 0.00 0.00 0.00 0.00 0.00 0.00 0.00 0.00 0.00 0.00 0.00 0.00 0.00 0.00 0.00 0.00 0.00 0.00 0.00 0.00 0.00 0.00 0.00 0.00 0.00 0.00 0.00 0.00 0.00 0.00 0.00 0.00 0.00 0.00 0.00
0.00 0.00 0.00 0.00 0.00 0.00 0.00 0.00 0.00 0.00 0.00 0.00 0.00 0.00 0.00 0.00 0.00 0.00 0.00 0.00 0.00 0.00 0.00 0.00 0.00 0.00 0.00 0.00 0.00 0.00 0.00 0.00 0.00 0.00 0.00 0.00 0.00 0.00 0.00 0.00 0.00 0.00 0.00 0.00 0.00 0.00 0.00 0.00 0.00
MSLP
1011.37 1011.34 1011.26 1010.88 1010.52 1009.19 1007.90 1007.36 1007.00 1005.95 1005.37 1005.39 1005.44 1005.29 1004.88 1005.00 1005.33 1006.57 1007.67 1008.12 1008.63 1009.30 1009.96 1010.78 1011.31 1011.53 1011.86 1012.11 1012.11 1012.28 1012.64 1012.87 1013.17 1013.50 1013.76 1014.03 1014.37 1014.71 1015.03 1015.35 1015.61 1015.80 1016.01 1016.20 1016.32 1016.45 1016.59 1016.72 1016.85
1011.25 1011.02 1010.73 1010.06 1009.24 1008.11 1007.39 1007.12 1006.59 1006.15 1005.53 1005.41 1005.10 1005.17 1005.05 1005.20 1006.01 1007.00 1007.62 1008.29 1008.67 1009.33 1010.03 1010.58 1011.35 1011.71 1012.01 1012.32 1012.42 1012.59 1012.96 1013.19 1013.45 1013.75 1014.07 1014.33 1014.67 1014.94 1015.25 1015.51 1015.74 1015.95 1016.11 1016.26 1016.42 1016.58 1016.76 1016.93 1017.06
1011.23 1011.09 1010.30 1009.36 1008.61 1007.41 1006.86 1006.83 1006.62 1006.13 1005.56 1005.39 1004.97 1005.03 1005.09 1005.36 1006.16 1006.53 1007.14 1008.11 1008.67 1009.32 1009.89 1010.47 1011.16 1011.68 1012.03 1012.49 1012.67 1012.83 1013.21 1013.48 1013.70 1014.01 1014.32 1014.65 1015.00 1015.29 1015.60 1015.82 1016.00 1016.17 1016.35 1016.51 1016.67 1016.82 1016.96 1017.14 1017.31
1011.01 1010.72 1010.76 1009.38 1008.04 1007.59 1006.91 1006.75 1006.65 1005.92 1005.24 1005.38 1005.18 1004.97 1005.32 1005.81 1006.09 1006.73 1007.54 1008.21 1008.81 1009.39 1009.85 1010.64 1011.15 1011.50 1011.91 1012.34 1012.64 1012.87 1013.24 1013.58 1013.83 1014.16 1014.51 1014.84 1015.07 1015.47 1015.79 1015.98 1016.17 1016.27 1016.36 1016.52 1016.70 1016.91 1017.12 1017.25 1017.33
1011.22 1010.72 1009.70 1008.95 1008.04 1007.50 1007.07 1006.80 1006.53 1005.88 1005.56 1005.15 1005.29 1005.09 1005.55 1006.14 1006.64 1007.20 1007.84 1008.50 1008.75 1009.43 1009.93 1010.63 1011.38 1011.79 1012.05 1012.50 1012.78 1012.97 1013.32 1013.66 1013.98 1014.30 1014.67 1015.05 1015.34 1015.60 1015.83 1016.05 1016.22 1016.32 1016.44 1016.65 1016.88 1017.10 1017.30 1017.46 1017.53
1010.82 1010.96 1009.45 1008.58 1008.06 1007.47 1007.00 1006.58 1006.29 1005.92 1005.32 1005.11 1005.20 1005.41 1005.77 1006.60 1006.85 1007.41 1008.00 1008.54 1009.11 1009.64 1010.02 1010.59 1011.47 1011.99 1012.31 1012.62 1012.92 1013.15 1013.44 1013.84 1014.17 1014.45 1014.76 1015.10 1015.47 1015.79 1016.00 1016.18 1016.38 1016.60 1016.79 1016.96 1017.18 1017.39 1017.56 1017.67 1017.78
1010.75 1010.49 1009.26 1008.80 1008.09 1007.47 1006.79 1006.55 1006.04 1005.91 1005.55 1005.14 1005.23 1005.29 1005.98 1006.80 1007.25 1007.68 1008.23 1008.79 1009.39 1009.89 1010.28 1010.66 1011.11 1011.76 1012.32 1012.58 1012.86 1013.09 1013.39 1013.80 1014.18 1014.54 1014.87 1015.22 1015.52 1015.76 1016.00 1016.24 1016.43 1016.57 1016.76 1016.99 1017.21 1017.42 1017.55 1017.65 1017.80
1011.05 1010.60 1009.64 1008.91 1008.21 1007.36 1007.08 1006.61 1006.04 1006.02 1005.62 1005.54 1005.35 1005.17 1005.85 1006.69 1007.69 1008.17 1008.53 1009.02 1009.44 1010.00 1010.28 1010.58 1011.07 1011.51 1012.06 1012.44 1012.85 1013.05 1013.34 1013.68 1014.05 1014.43 1014.81 1015.16 1015.52 1015.83 1016.10 1016.36 1016.62 1016.90 1017.07 1017.17 1017.33 1017.49 1017.64 1017.70 1017.66
1011.39 1010.55 1009.57 1008.88 1008.51 1007.50 1007.20 1006.57 1006.00 1006.23 1006.11 1005.80 1005.65 1005.76 1006.18 1006.83 1007.84 1008.20 1008.59 1009.13 1009.51 1009.92 1010.26 1010.50 1010.94 1011.43 1011.84 1012.19 1012.72 1013.22 1013.48 1013.78 1014.15 1014.47 1014.83 1015.19 1015.17 1015.45 1015.74 1015.96 1016.32 1016.55 1016.83 1017.21 1017.26 1017.43 1017.45 1017.59 1017.72
1010.76 1010.42 1009.61 1009.13 1008.69 1007.90 1007.41 1006.99 1006.66 1006.12 1006.07 1006.06 1006.04 1006.32 1006.61 1007.00 1007.64 1007.90 1008.07 1008.52 1009.06 1009.41 1009.94 1010.47 1010.97 1011.36 1011.71 1012.07 1012.49 1012.84 1013.13 1013.45 1013.75 1014.11 1014.60 1014.84 1015.11 1015.45 1015.69 1016.01 1016.46 1016.54 1016.71 1016.66 1016.95 1017.08 1017.24 1017.25 1016.85
1010.48 1010.06 1009.97 1009.38 1008.95 1008.42 1007.75 1007.24 1006.90 1006.23 1005.98 1006.17 1006.06 1006.23 1006.53 1006.94 1007.33 1007.61 1007.81 1008.03 1008.47 1009.19 1009.75 1010.40 1010.98 1011.26 1011.48 1011.63 1012.17 1012.49 1012.78 1013.15 1013.63 1013.98 1014.33 1014.62 1014.89 1015.12 1015.37 1015.51 1015.81 1016.06 1016.44 1016.33 1016.52 1016.61 1016.46 1016.53 1016.56
1010.11 1010.15 1010.05 1009.54 1008.91 1008.49 1008.00 1007.73 1007.01 1006.66 1006.02 1006.36 1006.56 1006.47 1006.45 1006.68 1006.89 1007.18 1007.51 1007.98 1008.49 1009.01 1009.47 1010.11 1010.80 1011.18 1011.33 1011.46 1011.80 1011.96 1012.23 1012.61 1013.07 1013.59 1014.13 1014.36 1014.60 1014.93 1015.10 1015.19 1015.44 1015.84 1015.80 1015.92 1016.09 1016.01 1016.19 1016.26 1016.38
1010.74 1009.74 1010.17 1010.31 1009.28 1008.50 1008.33 1007.83 1007.53 1006.33 1006.07 1006.34 1006.37 1006.34 1006.25 1006.30 1006.56 1006.99 1007.19 1007.71 1008.25 1008.68 1009.03 1009.59 1010.31 1010.70 1011.10 1011.46 1011.40 1011.67 1012.00 1012.32 1012.65 1013.25 1013.74 1014.03 1014.18 1014.57 1014.79 1014.92 1015.10 1015.27 1015.30 1015.41 1015.64 1015.71 1015.66 1015.63 1015.73
1009.29 1009.87 1009.85 1009.72 1008.82 1008.00 1008.19 1007.63 1007.77 1006.34 1006.10 1006.13 1006.20 1005.90 1005.99 1006.03 1006.22 1006.67 1006.99 1007.21 1007.77 1008.06 1008.32 1008.90 1009.53 1010.05 1010.55 1010.83 1011.10 1011.48 1011.80 1012.10 1012.57 1012.75 1013.28 1014.00 1014.16 1014.21 1014.34 1014.59 1014.60 1014.80 1015.04 1014.94 1015.04 1015.27 1015.44 1015.42 1015.56
1008.95 1009.23 1009.21 1008.92 1008.62 1008.02 1007.93 1007.37 1006.84 1006.24 1005.76 1005.76 1005.77 1005.66 1005.92 1005.96 1006.31 1006.27 1006.38 1006.92 1007.11 1007.29 1007.56 1008.19 1008.86 1009.55 1009.96 1010.31 1010.73 1011.12 1011.36 1011.78 1012.13 1012.51 1013.26 1013.56 1013.94 1014.03 1014.00 1014.13 1014.13 1014.14 1014.46 1014.67 1014.78 1014.93 1014.94 1015.11 1015.07
1008.34 1008.87 1008.18 1007.51 1007.99 1007.78 1007.77 1005.78 1005.98 1005.69 1005.49 1005.43 1005.32 1005.22 1005.61 1005.72 1005.94 1006.08 1006.38 1006.69 1006.99 1007.42 1007.51 1007.86 1008.39 1008.94 1009.62 1009.92 1010.34 1010.70 1010.98 1011.30 1011.73 1012.43 1012.82 1013.11 1013.46 1013.81 1014.01 1013.60 1013.70 1013.81 1014.20 1014.16 1014.30 1014.48 1014.37 1014.45 1014.36
1007.93 1007.02 1007.45 1007.23 1007.07 1007.14 1007.49 1006.03 1005.53 1005.68 1005.49 1005.27 1005.26 1005.21 1005.07 1005.09 1005.45 1005.75 1005.80 1006.22 1006.62 1006.97 1007.42 1007.62 1007.90 1008.28 1008.84 1009.51 1010.06 1010.52 1010.82 1011.26 1011.38 1011.91 1012.29 1012.63 1012.81 1012.93 1013.68 1013.29 1013.21 1013.57 1013.70 1013.72 1013.90 1014.03 1013.95 1013.76 1013.85
1006.79 1006.86 1006.81 1006.72 1006.97 1006.90 1006.39 1005.79 1005.54 1005.36 1005.43 1005.18 1005.03 1005.02 1005.05 1004.94 1004.80 1004.86 1005.48 1005.89 1006.12 1006.55 1007.01 1007.33 1007.60 1007.91 1008.66 1009.27 1009.83 1010.27 1010.62 1011.02 1011.31 1011.56 1011.85 1012.16 1012.45 1012.66 1012.97 1012.76 1012.98 1013.23 1013.46 1013.43 1013.70 1013.75 1013.63 1013.62 1013.52
1006.42 1006.58 1006.69 1006.85 1006.76 1006.38 1006.25 1005.65 1005.24 1005.05 1005.35 1005.02 1004.75 1004.79 1004.61 1004.50 1004.47 1005.27 1005.46 1005.79 1006.07 1006.28 1006.56 1006.78 1007.13 1007.59 1008.29 1008.89 1009.26 1009.67 1009.91 1010.61 1011.05 1011.37 1011.60 1011.69 1011.89 1012.06 1012.39 1012.65 1012.71 1012.81 1013.05 1013.09 1013.21 1013.34 1013.47 1013.01 1013.16
1006.54 1006.45 1006.99 1006.90 1006.62 1006.50 1006.29 1005.65 1005.38 1005.06 1004.80 1004.60 1004.58 1004.73 1004.73 1004.53 1004.78 1005.27 1005.32 1005.49 1005.86 1005.95 1005.91 1006.48 1006.90 1007.34 1007.89 1008.40 1008.78 1009.15 1009.83 1010.54 1010.96 1011.36 1011.43 1011.63 1011.70 1011.81 1012.00 1012.27 1012.38 1012.61 1012.69 1012.90 1012.91 1012.95 1012.74 1012.67 1012.81
1006.45 1006.42 1006.85 1006.74 1006.82 1006.66 1006.40 1005.73 1005.30 1004.69 1004.72 1004.61 1004.55 1004.84 1004.74 1004.52 1004.64 1005.01 1004.94 1005.26 1005.63 1005.91 1005.91 1006.21 1006.45 1006.91 1007.61 1008.24 1009.06 1009.55 1010.13 1010.81 1011.19 1011.40 1011.68 1011.78 1011.72 1011.86 1011.94 1011.96 1012.18 1012.45 1012.62 1012.48 1012.52 1012.57 1012.77 1012.47 1012.34
1006.67 1006.91 1006.81 1006.90 1007.23 1006.62 1006.62 1005.65 1005.41 1005.00 1004.65 1004.59 1004.42 1004.42 1004.40 1004.41 1004.61 1004.81 1005.01 1004.88 1004.90 1004.72 1005.41 1006.01 1006.56 1007.15 1007.72 1008.02 1008.57 1009.00 1009.33 1010.04 1010.70 1011.14 1011.53 1011.68 1011.73 1011.80 1011.87 1011.84 1012.00 1012.23 1012.24 1012.30 1012.35 1012.55 1012.42 1012.46 1012.13
1005.99 1006.44 1006.61 1006.78 1006.89 1006.80 1006.53 1005.97 1005.27 1005.29 1004.53 1004.27 1004.28 1004.36 1004.44 1004.66 1005.09 1005.12 1005.00 1004.93 1004.76 1005.00 1005.48 1006.04 1006.53 1007.23 1007.72 1008.04 1008.26 1008.82 1009.32 1009.91 1010.47 1011.11 1011.52 1011.55 1011.73 1011.78 1011.79 1011.89 1011.94 1012.08 1012.08 1012.14 1012.02 1011.95 1011.89 1011.85 1011.96
1005.74 1006.13 1006.52 1006.73 1006.66 1006.01 1005.80 1005.68 1005.03 1004.92 1004.55 1004.53 1004.48 1004.53 1004.81 1004.98 1005.16 1005.21 1005.21 1005.08 1004.98 1005.32 1005.62 1006.08 1006.57 1007.07 1007.67 1008.14 1008.49 1008.62 1009.07 1009.52 1010.10 1010.53 1010.83 1011.16 1011.46 1011.77 1011.77 1011.64 1011.72 1011.87 1011.94 1011.89 1011.73 1011.71 1011.69 1011.64 1011.67
1005.66 1005.75 1006.02 1006.30 1006.17 1005.69 1006.07 1005.75 1004.79 1005.06 1005.12 1005.06 1004.79 1004.80 1005.26 1005.49 1005.41 1005.47 1005.49 1005.43 1005.61 1005.75 1005.93 1006.16 1006.66 1007.30 1007.78 1008.20 1008.55 1008.60 1008.77 1009.10 1009.39 1009.88 1010.14 1010.55 1010.95 1011.22 1011.40 1011.36 1011.42 1011.43 1011.50 1011.52 1011.56 1011.50 1011.40 1011.38 1011.26
1005.14 1005.28 1005.09 1005.54 1005.91 1005.87 1006.65 1005.47 1004.96 1005.53 1005.85 1005.78 1005.74 1005.82 1005.74 1005.86 1006.11 1006.08 1006.24 1006.22 1006.04 1006.06 1006.17 1006.21 1006.68 1007.29 1007.80 1007.97 1008.15 1008.52 1008.80 1009.01 1009.34 1009.61 1009.59 1009.94 1010.13 1010.35 1010.72 1010.96 1011.04 1010.99 1010.97 1011.06 1011.15 1011.21 1011.14 1011.16 1011.02
1005.29 1005.50 1005.69 1006.05 1007.21 1006.70 1006.14 1006.12 1005.90 1006.08 1006.29 1006.34 1006.47 1006.57 1006.64 1006.55 1006.40 1006.23 1006.24 1006.49 1006.40 1006.42 1006.51 1006.43 1006.56 1007.15 1007.70 1007.96 1008.23 1008.60 1009.01 1009.31 1009.26 1009.52 1009.63 1009.62 1009.73 1009.75 1010.16 1010.44 1010.61 1010.63 1010.60 1010.65 1010.73 1010.75 1010.87 1010.96 1010.81
1004.77 1005.40 1006.18 1006.43 1006.58 1006.66 1006.41 1006.25 1005.48 1006.23 1006.52 1006.73 1006.79 1007.08 1007.19 1007.04 1006.64 1006.61 1006.52 1006.52 1006.81 1007.03 1007.31 1007.39 1007.53 1007.82 1008.36 1008.73 1009.16 1009.33 1009.66 1009.86 1009.89 1009.86 1009.71 1009.64 1009.55 1009.54 1009.63 1009.79 1009.93 1010.09 1010.13 1010.20 1010.29 1010.21 1010.21 1010.32 1010.17
1005.64 1005.59 1006.24 1006.42 1007.07 1006.57 1006.47 1005.91 1006.08 1006.58 1007.00 1007.35 1007.59 1007.65 1007.60 1007.47 1007.25 1007.13 1007.05 1007.22 1007.24 1007.29 1007.36 1007.72 1007.93 1008.30 1008.72 1009.08 1009.36 1009.59 1009.66 1009.70 1009.70 1009.67 1009.56 1009.57 1009.66 1009.67 1009.59 1009.52 1009.61 1009.67 1009.60 1009.55 1009.57 1009.49 1009.46 1009.50 1009.43
1006.21 1006.16 1006.34 1006.59 1007.62 1007.88 1007.32 1006.46 1006.85 1007.10 1007.54 1007.79 1007.92 1007.97 1007.88 1007.90 1007.87 1007.79 1007.70 1007.78 1007.84 1008.02 1008.33 1008.57 1008.71 1008.81 1009.11 1009.23 1009.32 1009.32 1009.44 1009.50 1009.39 1009.22 1009.13 1009.25 1009.36 1009.25 1009.14 1009.11 1009.04 1008.96 1008.94 1009.02 1009.03 1008.84 1008.53 1008.52 1008.42
Thickness
5770 5773 5780 5778 5761 5766 5764 5773 5786 5795 5806 5823 5828 5824 5828 5834 5827 5815 5842 5845 5845 5841 5836 5830 5827 5826 5824 5821 5821 5819 5815 5814 5811 5808 5806 5805 5802 5798 5795 5793 5790 5788 5786 5784 5782 5780 5777 5775 5773
5765 5769 5773 5767 5754 5750 5765 5779 5780 5794 5812 5823 5829 5829 5828 5826 5839 5834 5836 5843 5843 5838 5834 5830 5826 5823 5821 5817 5817 5816 5812 5811 5809 5806 5804 5802 5799 5795 5792 5790 5788 5786 5784 5782 5780 5777 5775 5772 5770
5758 5762 5757 5756 5751 5755 5766 5778 5784 5798 5813 5814 5821 5834 5832 5830 5839 5841 5849 5845 5842 5837 5833 5830 5825 5821 5819 5815 5814 5813 5809 5807 5806 5803 5801 5798 5795 5792 5788 5786 5784 5782 5780 5778 5776 5774 5772 5769 5767
5747 5750 5746 5743 5751 5766 5777 5779 5785 5795 5813 5815 5821 5818 5835 5844 5844 5847 5846 5843 5838 5834 5831 5826 5823 5821 5819 5815 5813 5811 5808 5806 5804 5801 5798 5795 5792 5788 5785 5783 5781 5780 5779 5776 5774 5771 5768 5766 5765
5736 5735 5730 5735 5750 5765 5775 5780 5787 5790 5799 5808 5817 5813 5821 5836 5843 5844 5841 5838 5835 5831 5828 5823 5818 5816 5815 5812 5810 5808 5806 5803 5800 5797 5794 5790 5787 5784 5782 5780 5777 5776 5775 5772 5769 5766 5764 5762 5761
5719 5720 5721 5728 5742 5762 5772 5781 5787 5788 5801 5806 5810 5812 5821 5833 5836 5837 5838 5834 5831 5826 5824 5821 5815 5812 5809 5808 5806 5805 5802 5799 5796 5794 5791 5787 5783 5779 5777 5775 5773 5771 5769 5767 5764 5762 5760 5759 5757
5708 5708 5719 5725 5736 5747 5766 5781 5783 5786 5791 5800 5814 5805 5819 5822 5832 5834 5832 5829 5826 5821 5819 5817 5815 5810 5806 5805 5803 5802 5800 5796 5793 5789 5786 5782 5779 5777 5774 5772 5769 5768 5765 5763 5761 5760 5758 5757 5754
5706 5705 5707 5721 5726 5739 5762 5772 5787 5785 5787 5808 5815 5801 5803 5819 5824 5826 5826 5824 5822 5818 5817 5816 5811 5808 5804 5802 5800 5798 5796 5793 5790 5786 5783 5779 5775 5772 5769 5767 5764 5761 5759 5758 5756 5754 5753 5753 5752
5698 5693 5699 5715 5718 5739 5758 5762 5780 5787 5784 5795 5803 5807 5814 5819 5816 5816 5816 5816 5815 5813 5813 5813 5809 5804 5801 5798 5795 5792 5790 5787 5784 5781 5777 5773 5771 5769 5766 5764 5761 5758 5754 5751 5749 5748 5748 5746 5746
5691 5686 5703 5722 5729 5733 5745 5753 5761 5773 5778 5781 5789 5800 5809 5812 5809 5808 5811 5812 5811 5811 5810 5809 5805 5801 5798 5795 5792 5789 5786 5783 5781 5777 5772 5769 5767 5763 5760 5757 5754 5753 5750 5749 5746 5745 5742 5743 5744
5688 5687 5705 5714 5722 5731 5737 5745 5758 5762 5765 5776 5780 5789 5799 5804 5804 5805 5809 5813 5811 5811 5806 5804 5800 5797 5796 5794 5789 5786 5784 5781 5776 5773 5770 5766 5763 5761 5757 5756 5752 5750 5746 5745 5743 5742 5741 5740 5741
5680 5693 5688 5697 5712 5721 5725 5737 5746 5755 5766 5778 5782 5789 5794 5795 5799 5802 5804 5804 5805 5805 5805 5802 5797 5794 5792 5790 5786 5785 5783 5780 5775 5770 5765 5762 5759 5756 5754 5752 5750 5746 5745 5743 5742 5742 5739 5739 5739
5662 5686 5682 5687 5704 5714 5721 5723 5730 5752 5767 5775 5780 5784 5788 5797 5799 5799 5801 5803 5802 5800 5800 5799 5795 5791 5788 5784 5783 5781 5779 5775 5771 5767 5762 5758 5756 5753 5750 5748 5746 5744 5743 5741 5738 5738 5739 5740 5738
5675 5672 5682 5687 5698 5712 5710 5721 5720 5750 5762 5765 5770 5781 5788 5790 5792 5791 5793 5797 5797 5798 5800 5798 5795 5791 5786 5784 5781 5777 5773 5770 5765 5764 5758 5752 5749 5747 5746 5744 5743 5741 5738 5739 5739 5737 5735 5736 5733
5671 5663 5672 5682 5692 5702 5708 5707 5717 5746 5759 5759 5766 5775 5776 5780 5783 5788 5793 5790 5796 5799 5799 5795 5791 5788 5784 5781 5777 5772 5769 5764 5761 5756 5748 5747 5743 5741 5740 5740 5740 5739 5737 5736 5734 5732 5731 5731 5729
5666 5664 5662 5691 5686 5699 5702 5711 5731 5745 5742 5754 5761 5766 5765 5771 5775 5782 5786 5787 5790 5789 5789 5789 5788 5784 5778 5776 5772 5768 5763 5759 5755 5749 5745 5741 5737 5735 5731 5737 5736 5735 5732 5731 5731 5728 5728 5728 5728
5657 5666 5666 5677 5692 5694 5693 5707 5725 5733 5737 5745 5752 5758 5763 5768 5771 5776 5783 5783 5782 5781 5780 5779 5782 5779 5776 5772 5768 5761 5755 5752 5749 5745 5741 5737 5736 5736 5727 5734 5732 5729 5727 5728 5726 5723 5723 5724 5723
5655 5659 5669 5674 5686 5690 5694 5703 5718 5731 5734 5738 5744 5749 5752 5761 5771 5779 5775 5775 5777 5775 5772 5770 5769 5769 5765 5761 5758 5755 5751 5745 5741 5738 5735 5733 5731 5729 5726 5728 5726 5724 5722 5722 5719 5718 5719 5717 5717
5666 5664 5665 5675 5684 5687 5689 5698 5714 5726 5724 5730 5737 5739 5749 5759 5770 5764 5766 5768 5767 5767 5766 5765 5763 5760 5754 5750 5748 5743 5741 5737 5734 5731 5729 5728 5726 5725 5723 5721 5720 5719 5716 5715 5713 5712 5710 5714 5713
5658 5659 5656 5670 5679 5681 5683 5687 5704 5713 5720 5728 5732 5736 5740 5749 5754 5753 5758 5759 5758 5761 5764 5761 5759 5753 5748 5746 5744 5741 5735 5729 5726 5723 5722 5720 5719 5718 5716 5714 5713 5710 5709 5707 5706 5706 5706 5706 5705
5651 5654 5653 5661 5667 5675 5675 5677 5690 5713 5716 5723 5728 5730 5735 5741 5744 5747 5751 5751 5752 5752 5755 5754 5754 5748 5741 5737 5731 5726 5722 5715 5711 5710 5709 5709 5709 5709 5707 5707 5705 5702 5700 5700 5700 5698 5694 5694 5698
5634 5651 5657 5657 5653 5654 5670 5663 5676 5693 5704 5712 5721 5726 5732 5736 5740 5742 5742 5747 5750 5756 5753 5749 5744 5738 5733 5731 5724 5719 5716 5707 5704 5701 5700 5699 5700 5699 5699 5697 5695 5694 5694 5692 5691 5689 5688 5686 5686
5645 5652 5653 5654 5651 5653 5658 5659 5679 5678 5693 5708 5714 5718 5725 5727 5727 5732 5736 5739 5743 5745 5743 5739 5735 5729 5726 5723 5719 5712 5706 5702 5697 5693 5689 5691 5690 5688 5685 5683 5684 5684 5683 5681 5682 5682 5682 5682 5679
5650 5646 5643 5644 5649 5650 5661 5662 5673 5680 5692 5700 5708 5711 5712 5716 5719 5722 5726 5730 5732 5732 5731 5728 5724 5720 5717 5713 5709 5705 5700 5696 5690 5687 5685 5682 5679 5674 5673 5673 5673 5671 5671 5671 5672 5672 5671 5671 5670
5639 5639 5627 5629 5637 5645 5646 5653 5674 5678 5682 5688 5696 5702 5699 5700 5705 5708 5711 5714 5714 5715 5717 5717 5712 5706 5704 5701 5698 5697 5695 5691 5686 5681 5678 5674 5669 5665 5662 5662 5663 5664 5663 5663 5661 5660 5660 5659 5659
5635 5641 5635 5617 5625 5642 5635 5649 5665 5668 5671 5674 5679 5682 5687 5689 5690 5692 5691 5694 5700 5702 5705 5706 5702 5697 5694 5693 5691 5688 5685 5681 5678 5674 5673 5669 5665 5662 5657 5654 5655 5655 5655 5653 5652 5650 5648 5646 5646
5622 5624 5642 5624 5610 5623 5640 5643 5652 5656 5659 5664 5664 5667 5669 5675 5679 5684 5686 5685 5689 5692 5692 5694 5694 5689 5684 5681 5678 5674 5671 5669 5668 5665 5663 5661 5659 5658 5652 5647 5645 5643 5641 5639 5636 5636 5635 5633 5632
5631 5634 5618 5618 5604 5605 5622 5626 5646 5644 5645 5651 5652 5653 5657 5662 5669 5672 5675 5677 5677 5676 5675 5675 5674 5671 5666 5662 5658 5657 5654 5652 5651 5650 5649 5648 5648 5647 5645 5642 5639 5635 5633 5629 5625 5622 5620 5620 5622
5615 5620 5615 5624 5613 5612 5612 5627 5641 5637 5636 5633 5636 5640 5643 5647 5651 5655 5657 5659 5662 5663 5663 5660 5659 5655 5651 5648 5645 5643 5641 5639 5638 5637 5637 5636 5633 5632 5632 5632 5629 5626 5623 5620 5616 5615 5611 5609 5610
5607 5612 5617 5612 5602 5596 5604 5618 5627 5629 5625 5626 5626 5628 5633 5634 5637 5640 5643 5643 5644 5643 5642 5640 5639 5638 5635 5633 5633 5630 5630 5627 5625 5626 5626 5623 5621 5621 5621 5619 5618 5617 5614 5610 5606 5605 5605 5603 5602